Theta_e
308 310 321 325 334 333 338 337 331 334 331 322 321 321 321 322 331 325 329 335 333 329 329 319 321 323 320 320 320 321 322 324 325 329 328 328 329 331 332 332 332 332 331 331 331 332 331 329 328
309 323 326 330 337 341 338 336 337 333 329 321 321 322 323 324 328 332 335 336 333 329 332 321 321 323 322 321 321 322 324 325 326 329 332 332 333 334 334 334 334 333 333 333 333 334 334 332 330
318 322 329 337 337 342 339 335 334 331 329 323 322 322 324 326 327 330 334 336 335 329 330 326 323 324 322 321 321 323 327 329 334 336 335 336 337 337 336 335 334 334 334 336 335 333 333 334 333
326 329 328 338 342 338 336 335 335 329 327 319 321 325 324 324 327 329 332 336 336 333 331 329 325 323 321 321 322 325 329 331 334 338 338 337 337 337 335 331 334 334 334 334 332 332 334 336 336
332 329 338 338 339 336 332 331 330 327 324 321 321 324 324 325 327 331 331 335 333 335 333 331 325 323 321 322 323 326 329 330 335 338 339 336 337 337 335 336 333 334 334 334 333 332 331 332 336
330 325 332 334 332 330 327 327 326 325 324 321 323 323 323 324 327 329 329 333 331 333 333 328 325 323 323 324 326 328 329 329 331 336 335 337 335 335 335 335 335 334 334 333 332 333 332 332 333
331 328 330 329 331 330 328 324 325 324 323 324 322 325 322 323 326 328 330 331 332 332 330 327 325 325 326 327 329 330 327 327 331 324 325 326 325 325 329 331 331 331 331 332 332 333 332 331 332
327 326 330 328 328 326 326 324 322 325 326 322 324 324 322 322 327 330 332 332 333 331 329 327 327 328 329 330 331 329 326 322 322 324 325 324 326 325 328 328 327 329 330 330 330 328 331 331 331
322 328 329 326 326 325 323 326 324 324 324 322 322 321 322 325 326 333 335 335 333 332 330 329 329 331 331 331 330 328 323 322 324 325 326 328 327 326 325 325 324 326 328 329 331 331 329 329 331
326 328 328 324 323 325 324 327 326 326 327 323 322 320 322 324 325 328 330 332 334 334 334 333 333 333 331 329 327 325 324 325 326 326 326 327 326 325 323 324 324 327 329 330 331 330 331 331 331
326 330 328 326 324 326 327 327 327 327 328 327 324 324 322 322 322 324 327 330 332 332 334 334 336 332 330 327 325 325 324 325 327 327 327 329 327 325 323 324 323 323 323 324 324 324 324 329 331
328 327 327 327 325 325 327 327 329 328 328 326 324 323 322 321 320 322 323 327 328 330 332 335 336 330 328 326 325 323 323 325 327 327 327 327 326 325 324 325 324 323 324 325 325 325 325 328 330
325 327 326 326 325 326 326 327 328 328 327 326 325 322 319 321 321 322 323 324 324 325 328 331 331 330 327 326 324 323 323 326 326 326 326 326 326 324 325 326 326 324 325 325 324 325 325 327 329
323 325 325 324 325 325 327 327 327 328 328 326 324 322 319 321 321 321 321 322 322 322 323 327 329 328 326 323 324 321 325 326 326 327 327 327 327 327 326 325 326 324 322 324 324 324 325 326 328
316 318 316 318 319 320 323 324 326 325 324 321 321 321 319 320 321 320 321 321 323 320 321 323 326 325 322 324 321 323 326 327 328 328 328 328 328 327 326 325 326 325 322 323 323 323 325 326 327
317 316 317 317 319 319 321 323 323 323 322 322 321 320 319 317 320 322 322 321 321 320 320 322 324 323 324 323 321 325 327 328 328 328 329 329 328 328 326 325 325 324 322 324 323 323 324 325 326
313 316 315 316 317 319 322 321 322 321 321 321 321 320 320 318 316 320 321 321 319 320 320 322 323 324 324 323 324 326 328 328 328 329 329 329 329 328 327 326 324 323 321 324 324 323 323 324 324
315 315 315 315 317 318 318 319 320 320 320 320 320 320 319 319 319 318 319 319 319 321 321 322 323 325 324 324 325 327 328 328 329 329 329 330 330 329 328 325 321 319 323 325 324 323 323 324 324
314 313 313 314 317 318 318 319 320 320 319 318 319 319 319 319 317 317 318 318 320 321 321 323 325 325 326 325 327 328 328 329 329 328 329 329 329 328 327 324 322 321 325 325 324 323 322 323 324
316 314 314 316 320 319 319 319 319 319 319 318 320 320 319 318 321 319 317 319 321 322 324 325 325 326 326 327 327 327 329 329 328 329 329 329 329 329 328 326 325 325 325 324 323 322 322 322 323
316 317 317 317 319 319 319 319 320 320 319 318 318 318 317 317 320 320 317 319 321 322 324 325 326 326 327 328 326 328 328 329 329 329 328 328 328 327 327 328 327 326 325 323 323 322 322 322 323
317 317 317 319 320 319 319 323 320 319 321 319 319 317 317 318 321 319 318 319 322 323 325 326 326 327 328 327 327 327 330 328 328 328 327 327 326 326 326 326 326 326 324 323 322 322 323 324 324
319 319 319 319 319 318 319 320 321 319 320 320 319 318 316 316 320 319 318 320 323 324 326 326 327 328 327 327 327 330 329 327 327 327 327 326 326 326 326 325 324 324 324 324 323 323 324 325 326
317 317 316 316 316 319 318 320 320 320 321 321 320 319 321 319 320 318 319 322 323 325 326 328 328 328 326 327 328 329 327 325 325 326 326 326 326 326 326 325 325 325 325 324 324 323 324 325 326
314 313 315 317 318 320 319 320 319 319 319 320 320 319 320 320 320 320 320 320 321 324 327 328 328 326 326 327 328 329 327 325 325 325 326 325 326 326 326 325 325 325 326 326 326 325 325 325 326
317 315 315 318 321 323 319 323 322 320 319 319 319 318 319 321 320 320 320 319 321 324 326 327 326 326 327 328 328 328 328 324 324 325 326 325 326 326 326 325 325 326 326 326 326 325 326 325 327
314 316 314 317 318 320 320 320 320 320 321 321 321 320 320 321 320 320 319 319 321 324 326 327 325 325 327 325 328 328 328 324 324 325 325 325 326 326 326 325 325 326 326 326 326 327 326 325 328
312 313 315 314 318 322 320 321 322 322 321 323 323 320 320 321 321 320 319 319 322 324 326 326 325 325 324 323 327 328 328 327 325 325 325 325 325 325 325 325 325 326 327 327 327 328 329 330 328
311 311 312 313 313 318 320 321 318 320 320 322 321 319 320 322 322 321 319 319 322 323 325 325 325 325 323 326 326 327 329 328 326 325 324 325 325 325 325 325 325 325 327 327 328 328 327 327 329
312 311 313 314 316 316 319 320 319 318 317 320 320 320 319 321 321 321 319 317 320 322 323 323 324 325 323 326 326 327 329 329 328 326 325 326 326 326 326 327 326 326 327 327 329 326 326 327 328
Wind_Speed
12 12 9 3 3 4 4 6 3 4 3 2 4 5 7 5 7 5 4 20 14 30 26 36 32 27 24 22 20 17 16 16 15 13 12 11 11 11 10 10 10 9 10 10 7 7 7 8 8
16 11 4 3 3 1 5 4 6 5 4 3 2 2 1 5 2 3 5 24 16 29 27 35 34 29 27 24 21 19 18 18 17 15 15 14 15 15 14 12 12 12 13 12 10 10 9 9 9
10 5 3 3 3 5 5 5 5 5 9 7 3 2 3 4 3 5 8 27 21 27 31 32 34 30 27 24 22 20 19 18 17 17 17 16 16 16 17 13 14 15 16 15 13 12 13 11 10
2 4 4 3 6 6 5 6 4 9 10 5 2 4 2 7 4 8 16 29 24 26 33 31 33 30 27 25 23 20 18 18 18 17 17 17 16 17 17 16 18 18 17 17 16 15 14 15 14
4 3 2 2 5 6 7 7 3 7 3 6 2 5 4 3 8 11 18 31 27 28 32 31 32 29 28 26 23 20 18 16 17 17 17 17 16 16 18 17 19 18 18 18 17 17 18 19 17
3 3 1 4 5 5 6 9 3 4 3 6 2 3 5 4 11 15 19 29 25 27 30 31 31 29 27 25 22 19 17 15 14 15 17 16 15 16 17 17 17 17 16 17 19 20 20 19 18
5 4 4 4 5 6 6 5 4 1 3 5 1 3 5 6 13 16 22 26 26 27 30 31 30 29 27 25 22 19 17 15 14 15 15 14 13 15 16 16 17 18 18 18 20 20 20 20 16
5 4 3 6 4 9 6 2 6 2 5 1 2 4 8 5 16 21 26 25 27 28 29 32 32 29 27 25 23 20 16 15 14 12 12 12 12 12 12 11 12 13 15 18 20 23 23 22 20
3 2 6 8 6 8 2 2 2 2 3 3 5 5 6 7 16 23 23 24 25 27 29 31 32 30 28 24 21 19 17 16 15 14 12 12 12 12 13 13 13 12 12 14 15 18 23 23 20
5 6 11 11 8 7 2 2 5 3 8 6 8 7 11 10 20 16 15 22 30 32 33 33 33 31 28 25 21 18 16 15 15 16 15 15 14 13 13 12 12 12 13 13 14 15 16 18 20
7 13 20 10 14 1 6 8 2 5 13 13 9 13 4 8 11 15 21 24 38 38 36 36 34 31 28 25 21 18 15 16 17 17 17 19 16 15 14 13 13 12 12 13 14 14 13 16 18
4 12 20 18 10 5 11 6 14 13 19 16 14 10 5 9 11 16 20 28 31 36 39 37 34 32 28 23 20 16 16 16 17 17 17 18 17 17 16 15 12 12 11 12 11 11 10 13 15
8 12 9 12 10 11 9 13 16 20 25 14 14 10 12 11 16 26 33 30 28 36 36 36 34 31 27 23 19 16 15 17 15 14 14 16 17 16 16 15 14 11 12 11 10 10 9 11 13
7 13 16 8 18 19 19 16 10 23 18 16 14 14 12 12 18 19 21 30 33 35 37 33 31 28 25 22 18 14 14 13 13 14 15 16 15 16 17 16 15 13 11 10 10 10 9 10 11
4 6 8 10 12 9 10 12 19 28 10 11 15 15 13 13 13 18 36 35 44 32 31 31 32 28 24 20 15 15 13 12 15 15 15 15 16 16 16 16 15 13 11 10 11 9 9 8 10
3 3 3 4 5 6 11 11 21 16 10 18 16 13 11 12 16 30 35 32 27 30 29 31 31 28 23 18 16 16 13 12 16 16 16 16 16 16 15 14 15 13 12 11 11 9 10 10 10
2 11 10 7 8 4 8 10 17 4 5 11 13 13 12 13 11 26 30 33 29 28 27 33 33 28 22 18 16 14 12 12 14 13 14 15 15 15 15 14 13 12 11 11 11 10 11 11 10
6 5 6 9 2 4 9 13 19 21 9 12 12 12 12 12 18 14 22 23 25 27 29 36 32 26 22 17 15 13 11 12 11 12 13 12 12 13 14 13 12 12 11 11 12 12 11 9 9
5 12 16 5 3 7 10 8 15 18 7 11 14 15 14 13 5 4 18 24 27 30 36 37 31 25 22 18 14 12 8 8 10 10 11 10 10 11 12 12 10 11 13 12 12 12 13 12 7
12 13 16 8 3 6 10 13 16 15 16 9 17 19 15 5 4 4 14 23 30 36 38 33 27 24 22 17 11 5 5 6 9 11 9 7 8 10 14 11 10 9 11 12 11 12 12 11 11
17 20 16 10 5 5 7 12 14 12 9 8 11 12 9 10 10 6 7 14 23 29 35 30 25 22 19 13 7 4 4 5 8 6 5 4 5 5 7 10 10 9 10 10 11 14 13 10 11
19 16 15 11 3 6 5 6 10 9 16 7 11 9 9 6 2 6 8 11 21 28 32 27 23 20 16 10 7 4 2 4 4 4 4 2 1 1 2 5 8 9 8 8 11 13 12 12 10
13 10 9 8 7 2 3 4 6 5 10 14 11 11 9 4 8 8 9 16 24 31 29 25 22 18 14 11 7 3 2 4 3 2 2 1 1 2 2 3 5 6 6 7 10 12 14 12 12
7 5 4 3 1 8 13 7 4 6 10 6 5 4 3 6 8 9 12 22 24 27 25 24 21 17 13 11 7 3 3 3 2 2 3 3 3 4 4 5 5 4 4 6 9 11 14 13 9
7 8 1 3 0 5 6 7 13 10 9 9 11 7 4 3 11 12 15 12 19 24 24 22 20 15 13 10 7 5 3 3 1 2 4 2 4 6 7 7 6 5 6 6 7 9 11 12 11
16 10 6 5 3 5 7 8 7 13 13 10 10 4 8 7 8 11 13 12 19 24 25 22 19 14 13 9 6 5 3 2 1 2 1 1 4 8 8 7 5 5 5 6 6 6 9 6 5
8 10 10 2 1 1 4 7 7 6 7 3 1 5 8 8 7 12 11 14 20 24 25 23 18 13 12 9 9 6 4 2 1 1 3 4 6 8 9 7 5 4 4 4 6 6 7 5 7
11 11 7 6 6 4 5 5 5 3 7 3 4 7 6 7 8 9 9 12 20 26 25 21 17 14 11 8 8 7 4 3 3 2 6 6 5 7 7 6 5 5 4 5 6 7 8 10 9
5 6 3 7 5 5 1 6 7 9 7 8 9 9 9 11 11 11 9 14 22 25 24 20 15 13 10 10 8 6 6 4 5 3 6 4 4 6 7 6 5 5 6 7 7 9 9 12 14
17 10 7 8 10 4 4 5 4 9 6 6 8 8 7 6 9 9 11 13 18 23 23 20 16 13 11 11 8 6 7 5 5 4 6 3 5 5 6 7 7 8 8 9 10 10 13 14 15
Wind_Direction
145 137 128 86 44 64 254 254 258 279 279 316 119 160 191 163 166 209 298 183 182 181 187 194 198 196 199 202 208 210 210 210 211 212 217 228 236 236 236 242 252 259 266 272 271 266 259 251 248
144 136 90 87 104 8 261 247 239 240 253 318 212 170 204 245 204 264 138 174 184 185 188 194 198 199 202 204 211 216 215 216 219 222 223 227 229 234 234 240 252 256 258 260 266 273 266 257 249
132 110 90 106 145 208 232 220 233 279 290 213 214 212 166 231 232 205 178 180 185 189 195 197 198 200 203 206 214 215 217 222 220 222 228 235 236 240 237 244 254 255 256 252 255 260 264 260 251
146 25 42 103 239 258 234 268 305 321 326 160 168 245 255 227 177 210 181 183 186 191 196 199 199 200 203 207 213 216 218 223 228 230 240 246 247 244 246 249 250 252 255 259 258 260 260 258 251
68 46 75 252 250 257 255 261 267 287 263 292 188 249 240 239 233 193 184 182 188 193 197 199 200 204 203 208 214 219 223 232 238 236 242 252 254 255 253 254 257 252 250 253 258 259 259 260 255
60 92 56 235 230 244 257 252 293 238 247 293 227 156 256 271 205 191 189 186 190 192 194 198 200 206 208 209 212 217 224 231 240 244 251 254 255 259 261 262 261 258 255 259 260 258 257 259 256
132 109 232 256 260 275 224 192 196 239 322 313 180 238 270 276 216 200 190 190 192 196 196 199 202 205 211 213 211 216 219 225 236 243 250 255 259 265 268 267 264 262 261 260 261 261 262 259 253
134 120 259 243 216 263 207 190 156 135 288 263 121 273 276 263 206 194 187 192 195 199 203 203 203 204 208 212 213 215 217 224 234 242 243 251 264 266 273 272 265 261 261 260 258 261 262 258 254
112 130 239 240 186 245 237 335 292 137 241 325 227 229 252 302 197 181 179 192 199 205 208 206 204 204 205 209 213 216 221 230 234 238 244 256 261 274 277 270 275 271 270 263 259 261 257 257 255
170 191 223 216 208 247 219 145 321 322 300 263 280 263 268 207 185 174 187 196 205 209 210 208 207 205 202 205 210 218 224 236 236 237 249 256 264 273 270 268 269 266 267 269 272 274 266 246 246
198 225 231 265 241 4 286 297 201 278 285 279 275 293 265 180 198 199 206 204 208 212 212 208 205 204 204 204 208 217 231 241 240 243 253 253 254 265 257 262 262 268 264 269 272 276 270 245 238
217 234 237 249 253 271 265 306 284 287 268 269 279 259 227 197 204 210 211 211 210 211 214 207 203 204 205 207 208 219 238 243 242 249 254 245 249 260 254 256 265 262 263 268 271 275 269 245 238
230 240 245 254 273 257 263 256 265 279 276 276 271 272 236 216 212 220 216 216 210 215 214 208 203 202 202 205 210 222 230 236 244 246 244 244 254 254 255 258 256 260 265 268 263 270 266 245 233
193 237 254 265 260 263 269 275 275 269 272 278 275 269 255 217 221 219 219 221 217 218 217 208 202 199 200 203 215 217 224 234 240 245 249 249 255 254 256 258 253 253 266 261 266 269 264 243 227
214 233 263 241 250 251 262 270 255 266 281 264 267 267 267 228 220 218 223 217 217 217 211 200 198 193 195 206 212 212 221 234 246 254 256 255 256 257 257 258 249 250 263 257 253 252 251 239 225
192 178 242 241 206 249 162 267 269 269 264 265 269 270 257 247 220 228 231 226 215 211 203 195 190 187 197 203 205 213 226 245 259 264 263 264 260 253 249 249 247 251 259 252 248 257 247 237 228
256 254 250 292 230 240 177 277 267 270 245 266 268 266 264 262 240 234 227 221 208 200 191 189 184 187 196 198 206 218 236 255 271 274 270 270 260 249 246 249 252 252 253 247 249 252 240 235 229
203 236 235 235 260 227 258 258 277 277 249 256 267 269 261 261 252 256 217 207 195 192 189 183 181 189 193 199 212 226 246 264 275 291 282 273 257 247 247 248 250 247 249 241 238 236 224 223 225
206 229 242 248 202 243 244 256 265 281 250 266 272 271 272 270 289 214 184 181 178 179 176 176 179 189 194 200 209 227 252 272 289 297 290 268 257 250 245 248 248 235 246 241 236 229 211 206 195
211 237 248 264 197 228 271 273 273 278 272 248 268 276 268 241 223 163 153 164 169 169 173 173 181 189 192 198 208 231 270 284 293 300 303 271 263 259 245 241 242 244 233 235 225 208 194 201 194
214 221 236 238 307 262 311 291 279 280 277 256 251 249 266 237 206 175 154 152 154 159 168 169 178 185 188 193 202 218 265 293 302 316 323 294 275 270 255 242 234 234 232 227 214 195 193 176 187
222 215 236 253 255 255 132 284 290 300 296 278 283 292 271 249 353 136 141 144 152 158 167 169 175 179 183 186 193 210 264 306 296 321 307 299 275 176 225 206 217 227 218 218 203 194 194 189 174
224 178 211 225 231 208 240 278 266 267 279 281 271 270 268 233 168 158 144 143 148 163 165 169 173 177 178 180 195 211 284 292 288 296 289 253 143 153 198 188 177 185 206 218 198 199 199 198 199
169 143 80 31 141 258 255 204 245 231 233 261 266 262 318 134 124 112 126 140 150 163 164 169 173 175 180 191 204 232 275 261 261 291 280 293 211 178 157 153 150 157 213 184 193 202 206 210 210
131 98 258 335 243 225 192 187 244 252 235 233 256 271 110 186 129 142 149 146 146 162 167 170 175 175 185 200 215 220 254 240 321 306 278 290 180 172 148 148 142 123 130 143 164 187 200 209 214
184 161 155 199 214 249 161 203 245 224 231 239 246 196 141 176 145 155 152 149 155 165 171 173 175 177 186 197 211 212 219 203 360 310 295 186 179 163 147 145 130 108 100 122 161 177 192 197 192
176 201 175 63 173 312 224 276 305 227 261 280 63 156 154 165 160 153 152 154 156 168 173 175 179 185 189 202 194 212 199 192 208 24 93 123 140 156 159 157 141 120 107 108 145 158 164 173 158
174 145 178 194 195 230 274 271 225 221 227 292 217 192 166 154 155 153 152 152 165 173 174 179 185 182 190 197 200 210 183 195 184 117 106 123 139 159 170 177 151 123 119 120 136 133 131 132 146
153 167 145 164 159 164 298 262 221 224 216 226 215 175 181 163 167 161 151 162 169 174 176 182 184 184 187 186 195 206 181 194 180 137 130 129 150 163 177 175 166 147 139 132 124 126 137 138 141
198 174 158 189 196 207 157 267 221 229 243 221 210 157 146 173 160 156 152 152 163 172 181 187 186 189 193 189 198 197 181 186 174 160 150 121 145 162 166 156 148 146 138 131 121 125 130 138 138